{"data":{"norad_id":56795,"intl_designator":"2023-078AE","name":"STARLINK-6061","alt_names":[],"object_type":"PAYLOAD","status":"ACTIVE","operator":null,"country":"US","launch_date":"2023-05-31","launch_site_code":"AFWTR","launch_vehicle":null,"mission":null,"orbit_class":"UNKNOWN","rcs_meters":null,"size_class":null,"mass_kg":null,"dimensions":null,"purposes":["comms"],"wikipedia_slug":null,"has_3d_model":false,"image_url":null,"decayed_at":null,"tle_current":{"epoch":"2026-09-20T22:00:03.000096Z","epoch_age_seconds":81616,"freshness":"FRESH","line1":"1 56795U 23078AE  26263.91670139  .00011385  00000+0  80839-3 0  9995","line2":"2 56795  70.0005 191.9846 0004855 288.5834  29.3218 15.04899042  5769","mean_motion":15.04899042,"eccentricity":0.0004855,"inclination_deg":70.0005,"raan_deg":191.9846,"arg_perigee_deg":288.5834,"mean_anomaly_deg":29.3218,"bstar":0.00080839,"rev_number":576,"period_min":95.687482004524,"perigee_km":548.45110909679,"apogee_km":555.18009307244,"semimajor_km":6929.9526010846,"source":"CELESTRAK","updated_at":"2026-09-21T09:00:33.509027Z"}}}